| time (UTC) | temp F | wind direction | speed MPH | gust MPH | rain 1hr in | rain 24hr in | rain mn in | humidity % | barometer mb |
| 20260906100041 | 54 | 286 | 2.0 | 6.0 | 0.00 | 0.00 | 0.00 | 82 | 1022.9 |
| 20260906094540 | 54 | 274 | 3.0 | 6.0 | 0.00 | 0.00 | 0.00 | 81 | 1022.8 |
| 20260906093039 | 55 | 264 | 3.0 | 9.0 | 0.00 | 0.00 | 0.00 | 80 | 1022.8 |
| 20260906091538 | 55 | 263 | 4.0 | 7.0 | 0.00 | 0.00 | 0.00 | 80 | 1022.6 |
| 20260906090034 | 55 | 272 | 4.0 | 6.0 | 0.00 | 0.00 | 0.00 | 80 | 1022.3 |
| 20260906084533 | 55 | 266 | 2.0 | 6.0 | 0.00 | 0.00 | 0.00 | 80 | 1022.1 |
| 20260906083039 | 55 | 269 | 3.0 | 7.0 | 0.00 | 0.00 | 0.00 | 79 | 1022.0 |
| 20260906081536 | 55 | 261 | 4.0 | 10.0 | 0.00 | 0.00 | 0.00 | 79 | 1022.0 |
| 20260906080030 | 56 | 254 | 3.0 | 8.0 | 0.00 | 0.00 | 0.00 | 80 | 1021.8 |
| 20260906074528 | 56 | 260 | 1.0 | 8.0 | 0.00 | 0.00 | 0.00 | 76 | 1021.6 |
| 20260906073027 | 56 | 282 | 5.0 | 9.0 | 0.00 | 0.00 | 0.00 | 76 | 1021.4 |
| 20260906071525 | 57 | 251 | 2.0 | 9.0 | 0.00 | 0.00 | 0.00 | 78 | 1021.3 |
| 20260906070025 | 57 | 256 | 3.0 | 10.0 | 0.00 | 0.00 | 0.00 | 76 | 1021.2 |
| 20260906064533 | 57 | 272 | 4.0 | 11.0 | 0.00 | 0.02 | 0.00 | 77 | 1021.2 |
| 20260906063024 | 57 | 256 | 5.0 | 14.0 | 0.00 | 0.02 | 0.00 | 77 | 1021.0 |
| 20260906061522 | 58 | 261 | 6.0 | 14.0 | 0.00 | 0.02 | 0.00 | 75 | 1021.0 |
| 20260906060022 | 58 | 283 | 6.0 | 14.0 | 0.00 | 0.02 | 0.00 | 74 | 1020.8 |
| 20260906054519 | 58 | 272 | 7.0 | 13.0 | 0.00 | 0.06 | 0.00 | 76 | 1021.0 |
| 20260906053023 | 58 | 271 | 3.0 | 14.0 | 0.00 | 0.06 | 0.00 | 76 | 1020.9 |
| 20260906051516 | 58 | 268 | 4.0 | 10.0 | 0.00 | 0.06 | 0.00 | 74 | 1020.8 |
| 20260906050043 | 58 | 273 | 6.0 | 12.0 | 0.00 | 0.06 | 0.00 | 75 | 1020.8 |
| 20260906044514 | 57 | 269 | 4.0 | 12.0 | 0.00 | 0.09 | 0.00 | 76 | 1020.8 |
| 20260906043012 | 57 | 268 | 8.0 | 17.0 | 0.00 | 0.09 | 0.00 | 76 | 1020.6 |
| 20260906041513 | 57 | 255 | 6.0 | 16.0 | 0.00 | 0.09 | 0.00 | 76 | 1020.7 |
| 20260906040010 | 57 | 290 | 5.0 | 14.0 | 0.00 | 0.09 | 0.00 | 76 | 1020.6 |
| 20260906034507 | 57 | 251 | 6.0 | 13.0 | 0.00 | 0.09 | 0.00 | 77 | 1020.5 |
| 20260906033005 | 57 | 250 | 5.0 | 10.0 | 0.00 | 0.09 | 0.00 | 76 | 1020.6 |
| 20260906031503 | 58 | 261 | 4.0 | 8.0 | 0.00 | 0.09 | 0.00 | 75 | 1020.7 |
| 20260906030133 | 57 | 304 | 5.0 | 8.0 | 0.00 | 0.09 | 0.00 | 74 | 1020.7 |
| 20260906024602 | 57 | 282 | 2.0 | 10.0 | 0.00 | 0.09 | 0.00 | 77 | 1020.7 |
| 20260906023117 | 57 | 269 | 3.0 | 8.0 | 0.00 | 0.09 | 0.00 | 76 | 1020.8 |
| 20260906021610 | 57 | 272 | 4.0 | 9.0 | 0.00 | 0.09 | 0.00 | 76 | 1021.1 |
| 20260906020059 | 56 | 251 | 5.0 | 10.0 | 0.00 | 0.09 | 0.00 | 77 | 1021.3 |
| 20260906014553 | 56 | 252 | 4.0 | 10.0 | 0.00 | 0.12 | 0.00 | 79 | 1021.4 |
| 20260906013051 | 56 | 264 | 5.0 | 9.0 | 0.00 | 0.12 | 0.00 | 79 | 1021.4 |
| 20260906011650 | 55 | 278 | 4.0 | 8.0 | 0.00 | 0.12 | 0.00 | 82 | 1021.3 |
| 20260906010047 | 55 | 232 | 2.0 | 7.0 | 0.00 | 0.12 | 0.00 | 82 | 1021.2 |
| 20260906004546 | 54 | 271 | 4.0 | 11.0 | 0.00 | 0.12 | 0.00 | 82 | 1021.2 |
| 20260906003050 | 55 | 258 | 3.0 | 8.0 | 0.00 | 0.12 | 0.00 | 81 | 1021.1 |
| 20260906001540 | 54 | 243 | 3.0 | 11.0 | 0.00 | 0.12 | 0.00 | 81 | 1020.9 |
| 20260906000040 | 54 | 257 | 4.0 | 11.0 | 0.00 | 0.12 | 0.00 | 82 | 1020.8 |
| 20260905234544 | 54 | 270 | 5.0 | 13.0 | 0.00 | 0.12 | 0.00 | 82 | 1020.8 |
| 20260905233036 | 53 | 255 | 4.0 | 10.0 | 0.00 | 0.12 | 0.00 | 82 | 1020.6 |
| 20260905231534 | 54 | 250 | 3.0 | 11.0 | 0.00 | 0.12 | 0.00 | 83 | 1020.5 |
| 20260905230031 | 53 | 247 | 3.0 | 13.0 | 0.00 | 0.12 | 0.00 | 83 | 1020.1 |
| 20260905224529 | 53 | 246 | 4.0 | 12.0 | 0.00 | 0.12 | 0.00 | 84 | 1020.1 |
| 20260905223026 | 52 | 252 | 6.0 | 14.0 | 0.00 | 0.12 | 0.00 | 85 | 1019.8 |
| 20260905221523 | 52 | 264 | 5.0 | 11.0 | 0.00 | 0.12 | 0.00 | 86 | 1019.5 |
| 20260905220027 | 52 | 269 | 6.0 | 11.0 | 0.00 | 0.12 | 0.00 | 87 | 1019.4 |
| 20260905214520 | 51 | 257 | 7.0 | 13.0 | 0.00 | 0.12 | 0.00 | 87 | 1019.2 |
| 20260905213019 | 51 | 266 | 7.0 | 12.0 | 0.00 | 0.12 | 0.00 | 88 | 1018.9 |
| 20260905211514 | 50 | 275 | 7.0 | 14.0 | 0.00 | 0.12 | 0.00 | 88 | 1018.7 |
| 20260905210012 | 50 | 280 | 8.0 | 13.0 | 0.00 | 0.12 | 0.00 | 88 | 1018.4 |
| 20260905204511 | 50 | 270 | 5.0 | 10.0 | 0.00 | 0.12 | 0.00 | 88 | 1018.2 |
| 20260905203006 | 51 | 271 | 8.0 | 14.0 | 0.00 | 0.12 | 0.00 | 88 | 1017.8 |
| 20260905201503 | 51 | 266 | 9.0 | 15.0 | 0.00 | 0.12 | 0.00 | 88 | 1017.6 |
| 20260905200001 | 51 | 257 | 7.0 | 15.0 | 0.00 | 0.13 | 0.00 | 87 | 1017.4 |
| 20260905194601 | 51 | 267 | 8.0 | 13.0 | 0.00 | 0.13 | 0.00 | 87 | 1017.5 |
| 20260905193058 | 51 | 288 | 6.0 | 12.0 | 0.00 | 0.13 | 0.00 | 87 | 1017.4 |
| 20260905191609 | 51 | 269 | 6.0 | 12.0 | 0.00 | 0.13 | 0.00 | 88 | 1017.3 |
| 20260905190053 | 51 | 275 | 7.0 | 15.0 | 0.00 | 0.13 | 0.00 | 89 | 1017.1 |
| 20260905184604 | 51 | 278 | 6.0 | 17.0 | 0.00 | 0.14 | 0.00 | 89 | 1016.7 |
| 20260905183049 | 51 | 269 | 8.0 | 13.0 | 0.00 | 0.14 | 0.00 | 90 | 1016.5 |
| 20260905181544 | 51 | 288 | 8.0 | 14.0 | 0.00 | 0.14 | 0.00 | 90 | 1016.2 |
| 20260905180049 | 51 | 266 | 7.0 | 17.0 | 0.00 | 0.14 | 0.00 | 90 | 1016.1 |
| 20260905174545 | 51 | 248 | 8.0 | 15.0 | 0.00 | 0.14 | 0.00 | 89 | 1015.9 |
| 20260905173038 | 51 | 264 | 12.0 | 20.0 | 0.00 | 0.14 | 0.00 | 88 | 1015.7 |
| 20260905171535 | 51 | 288 | 8.0 | 16.0 | 0.00 | 0.14 | 0.00 | 88 | 1015.4 |
| 20260905170032 | 52 | 276 | 9.0 | 17.0 | 0.00 | 0.14 | 0.00 | 87 | 1015.1 |
| 20260905164501 | 52 | 280 | 9.0 | 19.0 | 0.00 | 0.16 | 0.00 | 86 | 1014.9 |
| 20260905163105 | 52 | 266 | 8.0 | 18.0 | 0.00 | 0.16 | 0.00 | 85 | 1014.6 |
| 20260905161556 | 52 | 279 | 9.0 | 18.0 | 0.00 | 0.16 | 0.00 | 85 | 1014.4 |
| 20260905160058 | 52 | 254 | 12.0 | 21.0 | 0.00 | 0.16 | 0.00 | 85 | 1014.2 |
| 20260905154552 | 52 | 275 | 13.0 | 22.0 | 0.00 | 0.16 | 0.00 | 85 | 1013.8 |
| 20260905153053 | 52 | 276 | 14.0 | 22.0 | 0.00 | 0.16 | 0.00 | 85 | 1013.5 |
| 20260905151546 | 52 | 251 | 11.0 | 21.0 | 0.00 | 0.16 | 0.00 | 86 | 1013.2 |
| 20260905150041 | 51 | 275 | 10.0 | 24.0 | 0.00 | 0.16 | 0.00 | 86 | 1013.0 |
| 20260905144546 | 51 | 275 | 12.0 | 18.0 | 0.00 | 0.18 | 0.00 | 86 | 1012.6 |
| 20260905143036 | 52 | 269 | 10.0 | 23.0 | 0.00 | 0.18 | 0.00 | 85 | 1012.3 |
| 20260905141548 | 52 | 248 | 12.0 | 21.0 | 0.00 | 0.18 | 0.00 | 83 | 1012.2 |
| 20260905140025 | 52 | 269 | 10.0 | 17.0 | 0.00 | 0.18 | 0.00 | 83 | 1012.0 |
| 20260905134523 | 52 | 250 | 9.0 | 17.0 | 0.00 | 0.24 | 0.18 | 83 | 1011.8 |
| 20260905133024 | 52 | 268 | 9.0 | 18.0 | 0.00 | 0.24 | 0.18 | 85 | 1011.4 |
| 20260905131521 | 52 | 275 | 12.0 | 21.0 | 0.00 | 0.24 | 0.18 | 85 | 1011.0 |
| 20260905130016 | 52 | 248 | 12.0 | 26.0 | 0.00 | 0.24 | 0.18 | 84 | 1010.6 |
| 20260905124514 | 52 | 267 | 12.0 | 21.0 | 0.00 | 0.25 | 0.18 | 84 | 1010.2 |
| 20260905123010 | 52 | 260 | 15.0 | 26.0 | 0.00 | 0.25 | 0.18 | 84 | 1009.8 |
| 20260905121509 | 52 | 284 | 15.0 | 24.0 | 0.00 | 0.25 | 0.18 | 84 | 1009.5 |
| 20260905120009 | 52 | 266 | 11.0 | 24.0 | 0.00 | 0.25 | 0.18 | 83 | 1009.4 |
| 20260905114508 | 52 | 269 | 15.0 | 26.0 | 0.00 | 0.26 | 0.18 | 82 | 1009.2 |
| 20260905113008 | 52 | 218 | 12.0 | 25.0 | 0.00 | 0.26 | 0.18 | 82 | 1008.8 |
| 20260905111506 | 52 | 274 | 12.0 | 24.0 | 0.00 | 0.26 | 0.18 | 81 | 1008.5 |
| 20260905110010 | 52 | 256 | 13.0 | 23.0 | 0.00 | 0.27 | 0.18 | 82 | 1008.2 |
| 20260905104505 | 52 | 256 | 12.0 | 23.0 | 0.00 | 0.27 | 0.18 | 82 | 1008.2 |
| 20260905103005 | 52 | 262 | 12.0 | 23.0 | 0.00 | 0.27 | 0.18 | 82 | 1007.9 |
| 20260905101513 | 52 | 281 | 15.0 | 24.0 | 0.00 | 0.27 | 0.18 | 81 | 1007.4 |